Other Public Products
Issued by NWS Grand Forks, ND

Home | Current Version | Previous Version | Graphics & Text | Print | Product List | Glossary On
Versions: 1 2 3 4 5 6 7 8 9 10 11 12 13 14 15 16 17 18 19 20 21 22 23 24 25 26 27 28 29 30 31 32 33 34 35 36 37 38 39 40 41 42 43 44 45 46 47 48 49 50
000
FPUS83 KFGF 191210
OPUFGF
PRAIRIE TO PINES WEATHER ROUNDUP
NATIONAL WEATHER SERVICE EASTERN NORTH DAKOTA/GRAND FORKS ND
700 AM CDT THU OCT 19 2017

 **SATELLITE DATA USED TO AUGMENT SKY COVER AT AUTOMATED STATIONS**
 *****  WEATHER ACROSS EASTERN NORTH DAKOTA  *****

CITY           SKY/WX    TMP DP  RH WIND       PRES   REMARKS
GRAND FORKS    FAIR      33  27  78 S6        29.87F
6HR MIN TEMP:  33; 6HR MAX TEMP:  47;

GRAND FORKS AF FAIR      33  25  74 S7        29.86F
GRAND CITY NWS NOT AVBL
BUXTON         NOT AVBL
DEVILS LAKE    FAIR      39  32  76 SE8       29.81F
6HR MIN TEMP:  34; 6HR MAX TEMP:  45;

FARGO          FAIR      38  30  73 SE7       29.92F
6HR MIN TEMP:  36; 6HR MAX TEMP:  41;

WAHPETON ARPT  NOT AVBL
$$

 *****  WEATHER ACROSS CENTRAL AND WESTERN NORTH DAKOTA  *****

CITY           SKY/WX    TMP DP  RH WIND       PRES   REMARKS
JAMESTOWN      FAIR      36  28  73 SE8       29.83F
6HR MIN TEMP:  32; 6HR MAX TEMP:  39;

BISMARCK       FAIR      38  29  70 E3        29.82S
6HR MIN TEMP:  34; 6HR MAX TEMP:  40;

MINOT          FAIR      47  28  47 S12       29.72F
6HR MIN TEMP:  37; 6HR MAX TEMP:  50;

MINOT AFB      FAIR      42  29  59 SE7       29.70F
6HR MIN TEMP:  32; 6HR MAX TEMP:  44;

GARRISON         N/A     40  30  67 S8        29.76F
6HR MIN TEMP:  35; 6HR MAX TEMP:  43;

WILLISTON      FAIR      36  28  73 SW3       29.72S
6HR MIN TEMP:  34; 6HR MAX TEMP:  45;

DICKINSON      FAIR      41  27  57 S8        29.76F
6HR MIN TEMP:  39; 6HR MAX TEMP:  45;

HETTINGER      FAIR      35  26  69 CALM      29.82F
6HR MIN TEMP:  31; 6HR MAX TEMP:  43;

$$

 *****  OTHER OBSERVATIONS NORTHEAST NORTH DAKOTA  *****

CITY           SKY/WX    TMP DP  RH WIND       PRES   REMARKS
WALHALLA       FAIR     N/A N/A N/A CALM      29.84S
LANGDON        FAIR      30  25  80 SE8       29.83F WCI  23
CAVALIER       FAIR      36  25  64 CALM      29.84F
GRAFTON        FAIR      28  23  80 SE8       29.88F WCI  20
CANDO          FAIR      32  32 100 SE7       29.82F
FORT TOTTEN      N/A     43  25  48 SE9       29.95S
ROLLA          FLURRIES  36  21  55 S8        29.78F
RUGBY          FAIR      39  27  60 SE9       29.77S
 ***** THE ABOVE OBSERVATIONS ARE NON NWS ARE NOT QUALITY
        CONTROLLED AND MAY MIS-REPORT RAIN FOR SNOW...
$$

 *****  OTHER OBSERVATIONS SOUTHEAST NORTH DAKOTA *****

CITY           SKY/WX    TMP DP  RH WIND       PRES   REMARKS
COOPERSTOWN    FAIR      34  28  80 S8        29.86F
VALLEY CITY    FAIR      36  28  75 S7        29.88F
OAKES          NOT AVBL
GWINNER          N/A     37  30  75 CALM      29.89F
SHEYENNE NWR     N/A     31  28  90 E3        29.95S
BUFFALO        NOT AVBL
WYNDMERE       NOT AVBL
 ***** THE ABOVE OBSERVATIONS ARE NON NWS ARE NOT QUALITY
       CONTROLLED AND MAY MIS-REPORT RAIN FOR SNOW...
$$

  *****  WEATHER ACROSS NORTHERN MINNESOTA  *****

CITY           SKY/WX    TMP DP  RH WIND       PRES   REMARKS
FLAG ISLAND    FAIR      39  21  48 W10       29.84S
WARROAD        FAIR      37  27  65 SW3       29.88S
ROSEAU         FAIR      37  27  65 SW5       29.87F
HALLOCK        FAIR      32  19  59 SE9       29.87S WCI  24
THF RVR FALLS  FAIR      34  24  67 S7        29.91S
6HR MIN TEMP:  34; 6HR MAX TEMP:  44;

HALSTAD        NOT AVBL
FOSSTON        FAIR      34  25  69 S8        29.93F
BAUDETTE       FAIR      39  23  52 W7        29.88S
6HR MIN TEMP:  39; 6HR MAX TEMP:  49;

WASKISH        FAIR      46  34  61 SW10      29.91S
CROOKSTON      FAIR      34  25  69 S7        29.91F
$$
  *****  WEATHER ACROSS CENTRAL AND WEST MINNESOTA  *****

CITY           SKY/WX    TMP DP  RH WIND       PRES   REMARKS
BEMIDJI        FAIR      33  25  70 CALM      29.93F
6HR MIN TEMP:  32; 6HR MAX TEMP:  44;

PARK RAPIDS    FAIR      37  28  70 CALM      29.96R
6HR MIN TEMP:  34; 6HR MAX TEMP:  43;

WADENA         FAIR      34  28  80 CALM      29.96F
DETROIT LAKES  FAIR      43  32  65 CALM      29.94F
MOORHEAD       FAIR      39  30  70 SE5       29.93F
FERGUS FALLS   FAIR      43  32  65 SE9       29.96F
ELBOW LAKE     FAIR      40  32  73 CALM      29.97S
6HR MIN TEMP:  33; 6HR MAX TEMP:  40;

MORRIS MN      FAIR      37  34  87 SE8       29.97F
STAPLES        FAIR      36  28  75 CALM      29.98F
WHEATON        FAIR      37  32  81 SE7       29.96F
$$
  *****  WEATHER ELSEWHERE ACROSS MINNESOTA  *****

CITY           SKY/WX    TMP DP  RH WIND       PRES   REMARKS
DULUTH         FAIR      40  26  57 W12       29.95R
6HR MIN TEMP:  38; 6HR MAX TEMP:  45;

INTRNTL FALLS  FAIR      39  22  50 W7        29.88R
6HR MIN TEMP:  39; 6HR MAX TEMP:  47;

ELY            FAIR      41  21  45 W7        29.89R
CLOQUET        FAIR      43  23  45 SW6       29.97R
BRAINERD       FAIR      36  29  75 SW7       29.99R
6HR MIN TEMP:  34; 6HR MAX TEMP:  48;

HIBBING        FAIR      37  24  59 SW5       29.94R
6HR MIN TEMP:  36; 6HR MAX TEMP:  46;

ALEXANDRIA     FAIR      39  32  76 SW6       29.99S
6HR MIN TEMP:  37; 6HR MAX TEMP:  43;

SAINT CLOUD    FAIR      35  32  88 CALM      30.01F
6HR MIN TEMP:  34; 6HR MAX TEMP:  45;

MINNEAPOLIS    FAIR      46  32  58 CALM      30.05S
6HR MIN TEMP:  45; 6HR MAX TEMP:  52;

$$

  *****  WEATHER ACROSS SOUTH DAKOTA  *****

CITY           SKY/WX    TMP DP  RH WIND       PRES   REMARKS
SIOUX FALLS    FAIR      38  35  89 CALM      30.03F
6HR MIN TEMP:  36; 6HR MAX TEMP:  43;

BROOKINGS      FAIR      42  30  62 S9        30.02F
WATERTOWN      FAIR      40  33  76 SE9       29.97F
6HR MIN TEMP:  36; 6HR MAX TEMP:  43;

HURON          FAIR      41  31  67 S10       29.97S
6HR MIN TEMP:  37; 6HR MAX TEMP:  44;

SISSETON         N/A     40  32  73 SE7       29.91F
ABERDEEN       FAIR      39  31  72 S9        29.91F
6HR MIN TEMP:  34; 6HR MAX TEMP:  40;

MITCHELL       FAIR      38  31  76 SE6       29.99F
PIERRE         FAIR      46  36  68 SE13      29.88F
6HR MIN TEMP:  41; 6HR MAX TEMP:  47;

MOBRIDGE       FAIR      47  37  68 S12       29.82F
RAPID CITY     FAIR      43  26  51 E5        29.87S
6HR MIN TEMP:  42; 6HR MAX TEMP:  54;

$$

  *****  SOME WEATHER IN NEARBY STATES *****

CITY           SKY/WX    TMP DP  RH WIND       PRES   REMARKS
GLASGOW MT     FAIR      46  35  65 SE8       29.66S
6HR MIN TEMP:  44; 6HR MAX TEMP:  47;

GREAT FALLS MT FAIR      62  20  19 SW22G33   29.67R
6HR MIN TEMP:  59; 6HR MAX TEMP:  63;

CHEYENNE WY    FAIR      43  19  38 W12       30.10S
6HR MIN TEMP:  35; 6HR MAX TEMP:  46;

SCOTTSBLUFF NE FAIR      37  30  75 E5        30.02S
6HR MIN TEMP:  36; 6HR MAX TEMP:  46;

OMAHA NE       FAIR      43  39  86 CALM      30.07R
6HR MIN TEMP:  42; 6HR MAX TEMP:  50;

DES MOINES IA  FAIR      52  38  58 E6        30.10R
6HR MIN TEMP:  51; 6HR MAX TEMP:  56;

DAVENPORT IA   FAIR      43  41  93 CALM      30.13R
6HR MIN TEMP:  43; 6HR MAX TEMP:  57;

CHICAGO IL     FAIR      52  45  77 W5        30.10R
6HR MIN TEMP:  52; 6HR MAX TEMP:  60;

EAU CLAIRE WI  FAIR      38  30  73 CALM      30.05R
6HR MIN TEMP:  38; 6HR MAX TEMP:  48;

LA CROSSE WI   FAIR      46  38  73 S5        30.09R
6HR MIN TEMP:  43; 6HR MAX TEMP:  55;

$$

  *****  SOME NATIONAL WEATHER *****

CITY           SKY/WX    TMP DP  RH WIND       PRES   REMA



USA.gov is the U.S. government's official web portal to all federal, state and local government web resources and services.